Current weather by "City, St" or "zip code"  
 

Current Conditions: Robinson Municipal Airport, IL

Fair


56.0 F

Last Updated on Sep 18 2020, 12:55 am CDT
Humidity: 86%
Wind Speed: N 9.2 mph
Barometer 30.12 in
Dewpoint: 52.0 F
Visibility: 10.00 mi
Precip: --
Heat Index: NA
Wind Chill: 54 F
Current conditions at:

Robinson Municipal Airport, IL (KRSV)

Lat: 39.01361 Lon: 87.64846

Local Radar Image active severe weather and emergency alerts image image weather storm and storm spotter reports image weather observation monitoring service image
Local
Radar
Active
Alerts
Storm Reports Obs
Monitoring

Sign-up For Email & Text Message Weather Alert Notification Services



Advertise Here

Observation History for Robinson Municipal Airport, IL


Time Wind
(mph)
Vis
(mi)
Weather Precip (in) Temperature (F) Relative
Humidity
Wind
Chill
(F)
Heat
Index
(F)
Pressure
Air Dwpt altimeter
(in)
sea level
(mb)
Rmks
12:55 am CDT N 9.2 10.00 Fair -- 56.0 52.0 86% 54 NA 30.12 M
11:55 pm CDT N 9.2 10.00 Fair -- 58.0 53.6 85% 56 NA 30.12 M
10:55 pm CDT N 8.1 10.00 Fair -- 61.0 58.1 91% 60 NA 30.11 M
9:55 pm CDT N 5.8 10.00 Fair -- 63.0 58.1 85% 63 NA 30.09 M
8:55 pm CDT N 5.8 10.00 Fair -- 64.0 59.0 84% NA NA 30.07 M
7:55 pm CDT N 5.8 10.00 Fair -- 67.0 59.7 79% NA NA 30.05 M
6:55 pm CDT N 8.1 10.00 Mostly Cloudy -- 71.0 60.6 70% NA NA 30.03 M
5:55 pm CDT N 10.4 10.00 Mostly Cloudy -- 74.0 61.7 65% NA NA 30.01 M
4:55 pm CDT N 11.5 10.00 Mostly Cloudy -- 78.0 62.4 59% NA NA 30.00 M
3:55 pm CDT N 15.0 10.00 Fair -- 80.0 63.3 57% NA 82 30.00 M
2:55 pm CDT N 11.5 G 16.1 10.00 Partly Cloudy -- 81.0 64.2 58% NA 83 30.00 M
1:55 pm CDT N 8.1 10.00 Overcast -- 80.0 63.9 57% NA 82 30.01 M
12:55 pm CDT N 10.4 10.00 Mostly Cloudy -- 80.0 62.6 55% NA 81 30.03 M
11:55 am CDT E 4.6 10.00 Fair -- 78.0 60.1 54% NA NA 30.03 M
10:55 am CDT N 3.5 10.00 Fair -- 74.0 59.9 61% NA NA 30.04 M
9:55 am CDT N 0.0 10.00 Fair -- 66.0 58.3 77% NA NA 30.04 M
8:55 am CDT N 0.0 10.00 Fair -- 58.0 57.6 98% NA NA 30.03 M
7:55 am CDT N 0.0 10.00 Fair -- 55.0 54.5 100% NA NA 30.03 M
6:55 am CDT N 0.0 10.00 Partly Cloudy -- 47.0 47.1 100% NA NA 30.02 M
5:55 am CDT N 0.0 10.00 Fair -- 47.0 47.5 100% NA NA 30.02 M
4:55 am CDT N 0.0 7.00 Fair -- 47.0 47.5 100% NA NA 30.02 M
3:55 am CDT N 0.0 10.00 Fair -- 47.0 46.6 100% NA NA 30.01 M
2:55 am CDT N 0.0 4.00 Fog/Mist -- 47.0 47.1 100% NA NA 30.01 M
1:55 am CDT N 0.0 10.00 Fair -- 49.0 48.6 100% NA NA 30.03 M

Regional Weather Observation


Terre Haute Regional Airport, IN (KHUF)

Fair
57.0 F

Edgar County Airport, IL (KPRG)

Fair
55.0 F

Mattoon / Charleston, Coles County Memorial Airport, IL (KMTO)

Fair
53.0 F

Effingham, Effingham County Memorial Airport, IL (K1H2)

Fair
57.0 F

Lawrenceville-Vincennes International Airport, IL (KLWV)

Fair
62.0 F

Mount Carmel, Mount Carmel Municipal Airport, IL (KAJG)

Fair
60.0 F